User: anonymous   Login
Location: Ostrava
(49.8330°N, 18.2830°E)
Time: 18:08:05
(UTC+01:00)
Language:

Cosmos 2221 - Orbit

View from above orbital plane
View from above orbital plane
View from above satellite
View from above satellite

Ground track
Ground track

The orbit data is extracted from the following two-line orbital elements,

1 22236U 92080A   17016.60115364  .00000164  00000-0  15248-4 0  9990
2 22236  82.5068 202.3815 0017707 139.1918 221.0629 14.87524994304788
Epoch (UTC): 16 January 2017 14:25:39
Eccentricity: 0.0017707
inclination: 82.5068°
perigee height: 593 km
apogee height: 618 km
right ascension of ascending node: 202.3815°
argument of perigee: 139.1918°
revolutions per day: 14.87524994
mean anomaly at epoch: 221.0629°
orbit number at epoch: 30478

The dashed part of the orbit path shows where the satellite is in the earth's shadow,  

DLR